Regional Weather Roundup
Issued by NWS

Home | Current Version | Previous Version | Text Only | Print | Product List | Glossary On
Versions: 1 2 3 4 5 6 7 8 9 10 11 12 13 14 15 16 17 18 19 20 21 22 23 24 25 26 27 28 29 30 31 32 33 34 35 36 37 38 39 40 41 42 43 44 45 46 47 48 49 50
222
ASUS45 KBOI 260510
RWRID

IDAHO REGIONAL WEATHER ROUNDUP
NATIONAL WEATHER SERVICE BOISE ID
1100 PM MDT THU AUG 25 2016

NOTE: "FAIR" INDICATES FEW OR NO CLOUDS BELOW 12000 FEET
WITH NO SIGNIFICANT WEATHER AND/OR OBSTRUCTIONS TO VISIBILITY

IDZ012-014-260600-
SOUTHWEST IDAHO


CITY           SKY/WX    TMP DP  RH WIND       PRES   REMARKS
BOISE          FAIR      67  37  33 CALM      29.97F
CALDWELL       FAIR      61  44  53 CALM      29.96S
MOUNTAIN HOME  FAIR      69  36  29 N9        29.98R
$$

IDZ016-017-260600-
SOUTHCENTRAL IDAHO


CITY           SKY/WX    TMP DP  RH WIND       PRES   REMARKS
BURLEY         FAIR      55  40  56 SW5       30.03R
JEROME         FAIR      60  34  37 E6        30.03S
TWIN FALLS     FAIR      58  31  35 S10       30.04R
$$

IDZ019>023-260600-
SOUTHEAST IDAHO


CITY           SKY/WX    TMP DP  RH WIND       PRES   REMARKS
IDAHO FALLS    FAIR      54  37  52 N10       30.08R
POCATELLO      FAIR      59  27  29 CALM      30.05R
REXBURG        FAIR      55  37  50 NE7       30.09R
$$

IDZ006-010-011-018-031-032-260600-
CENTRAL IDAHO MOUNTAINS


CITY           SKY/WX    TMP DP  RH WIND       PRES   REMARKS
MCCALL         FAIR      61  33  35 NE6       30.12R
HAILEY         CLEAR     55  36  47 W6        30.10S
STANLEY          N/A     48  28  46 CALM      30.18R
SALMON         FAIR      61  34  36 E3        30.06R
CHALLIS        FAIR      60  30  32 NW8       30.09R
$$

IDZ002-004-006-007-026-260600-
NORTHERN IDAHO


CITY           SKY/WX    TMP DP  RH WIND       PRES   REMARKS
LEWISTON       FAIR      72  33  24 SE6       29.97R
LOWELL           N/A     60  46  59 CALM      30.02R
COEUR D`ALENE  FAIR      63  37  39 E3        30.03R
MULLAN PASS    FAIR      54  29  38 SE6       30.22S
$$




USA.gov is the U.S. government's official web portal to all federal, state and local government web resources and services.